Theta_e
354 353 353 357 358 349 348 348 350 347 345 342 341 343 345 337 335 342 334 338 338 328
352 351 352 357 356 350 351 340 343 341 340 339 338 338 339 334 337 336 336 334 336 329
344 348 352 350 347 345 342 338 341 338 339 338 337 337 339 335 335 334 328 326 331 332
341 340 340 339 337 339 340 337 335 335 335 335 335 336 339 336 330 329 332 332 330 329
335 336 337 336 336 337 337 336 333 332 332 331 331 333 331 328 327 327 328 328 329 327
332 333 334 334 334 333 333 332 332 330 329 328 327 327 328 328 327 328 329 328 328 328
325 326 327 327 327 328 328 327 327 328 327 327 326 326 326 326 329 329 329 329 329 328
319 321 320 320 322 323 323 323 323 323 323 323 324 322 326 327 327 327 327 328 328 328
314 315 317 317 318 319 318 319 319 318 318 321 319 309 305 310 318 322 322 322 324 325
312 312 313 314 314 315 318 319 316 316 316 318 320 306 303 304 314 316 317 319 320 320
311 310 311 311 311 315 315 316 315 314 315 315 313 302 300 301 311 313 314 315 315 316
309 309 308 308 310 312 312 313 312 312 312 313 313 302 298 299 307 308 309 310 311 309
308 307 307 308 309 309 309 309 309 309 310 307 307 300 296 296 298 298 299 302 305 303
307 307 308 308 309 308 307 305 304 303 304 303 302 299 295 296 299 301 301 301 304 306
Wind_Speed
13 9 11 10 8 11 11 12 15 12 11 9 9 7 6 6 6 5 6 7 7 9
9 11 11 11 6 7 6 9 10 11 9 9 9 10 8 7 5 6 6 8 9 9
10 8 8 8 9 7 5 6 10 8 8 8 9 9 8 7 9 8 8 8 10 9
6 8 9 9 8 7 5 4 7 7 8 9 10 10 8 9 10 10 10 11 11 11
6 6 5 4 5 5 5 5 5 7 9 10 12 11 12 13 14 14 13 13 13 14
9 8 7 5 5 3 4 6 7 9 10 12 13 13 13 15 15 15 16 16 15 15
5 5 4 3 4 5 6 8 9 11 12 14 15 16 16 17 15 16 16 17 18 18
3 4 4 5 6 7 8 10 11 13 14 15 15 14 17 17 18 19 20 19 18 18
7 7 7 9 9 10 11 12 13 15 16 16 14 14 8 8 14 16 18 17 18 18
7 9 8 10 11 12 11 12 14 15 17 16 16 14 14 13 15 17 17 18 18 18
11 12 12 13 14 12 12 13 12 14 15 15 15 12 13 13 16 16 18 18 19 20
12 13 14 14 14 13 13 13 14 15 17 17 16 11 5 7 13 14 16 15 16 15
14 14 15 15 16 14 14 16 14 15 14 15 14 12 17 16 9 12 12 16 19 22
14 15 15 15 14 13 12 13 13 15 14 17 15 14 19 18 12 11 11 11 11 10
Wind_Direction
217 218 221 196 209 199 179 192 167 175 170 167 168 182 183 213 213 234 235 249 260 277
198 198 209 194 195 212 179 153 158 177 168 179 188 195 193 223 246 227 244 250 245 251
205 200 168 157 186 160 179 159 150 182 184 194 207 213 213 228 229 226 242 249 248 244
163 145 156 154 174 144 144 193 167 195 205 215 222 225 229 246 271 267 230 232 256 258
116 120 118 140 148 148 181 208 234 231 228 233 236 233 229 239 251 253 249 246 247 254
32 47 43 28 20 339 275 260 259 261 257 261 258 254 246 244 245 244 245 250 255 249
47 42 26 0 307 285 278 278 274 268 267 271 272 270 266 264 262 257 250 247 246 247
8 357 340 328 317 303 299 289 282 276 275 270 266 261 258 258 257 258 261 266 267 258
318 324 322 310 299 287 283 284 286 282 279 279 277 286 310 292 290 286 282 275 265 260
290 287 287 293 290 285 286 286 281 281 280 278 278 278 284 291 289 283 275 273 272 272
307 307 307 303 298 298 290 283 281 279 278 279 279 280 278 275 280 278 276 275 275 277
315 308 299 295 295 292 291 290 289 287 287 285 284 296 28 345 301 287 282 278 287 294
305 300 298 297 299 299 293 290 291 294 300 304 309 322 321 309 293 279 275 275 265 256
301 299 295 292 293 301 308 302 300 299 299 291 284 289 279 274 270 270 277 282 280 276